Weather History for Soldotna, AK

Change the Weather History Date:

Wednesday, July 24, 2013

  Actual Average Record
Temperature  
Mean Temperature 60 °F -  
Max Temperature 75 °F 62 °F 75 °F (1968)
Min Temperature 46 °F 48 °F 33 °F (1954)
Degree Days  
Heating Degree Days 4    
Growing Degree Days 10 (Base 50)    
Moisture  
Dew Point 49 °F    
Average Humidity 62    
Maximum Humidity 87    
Minimum Humidity 44    
Precipitation  
Precipitation 0.00 in - - ()
Sea Level Pressure  
Sea Level Pressure 29.98 in    
Wind  
Wind Speed 3 mph (WNW)    
Max Wind Speed 13 mph    
Max Gust Speed -    
Visibility 10 miles    
Events      
Averages and records for this station are not official NWS values.
T = Trace of Precipitation, MM = Missing Value Source: NWS Daily Summary

Daily Weather History Graph

Daily Weather History Graph

Search for Another Location

Airport:

Trip Planner

Search our weather history database for the weather conditions in past years. The results will help you decide how hot, cold, wet, or windy it might be!

Date:

Astronomy

Jul. 24, 2013 Rise Set
Actual Time 5:23 AM AKDT 10:55 PM AKDT
Civil Twilight 4:13 AM AKDT 12:05 AM AKDT
Nautical Twilight 2:43 AM AKDT 1:38 AM AKDT
Astronomical Twilight Sun does not rise Sun does not rise
Moon 10:55 PM AKDT (7/24) 8:58 AM AKDT (7/24)
Length of Visible Light 19h 51m
Length of Day
17h 32m
Waning Gibbous, 94% of the Moon is Illuminated
Jul 24
Waning Gibbous
Jul 29
Last Quarter
Aug 6
New
Aug 14
First Quarter
Aug 20
Full

Hourly Weather History & Observations

Time (AKDT) Temp. Windchill Dew Point Humidity Pressure Visibility Wind Dir Wind Speed Gust Speed Precip Events Conditions
12:16 AM 57.2 °F - 48.2 °F 72% 30.03 in 10.0 mi Calm Calm - N/A   Unknown
12:36 AM 55.4 °F - 48.2 °F 77% 30.03 in 10.0 mi Calm Calm - N/A   Unknown
12:56 AM 55.4 °F - 46.4 °F 72% 30.03 in 10.0 mi Calm Calm - N/A   Unknown
1:16 AM 55.4 °F - 48.2 °F 77% 30.04 in 10.0 mi Calm Calm - N/A   Unknown
1:36 AM 51.8 °F - 46.4 °F 82% 30.03 in 10.0 mi Calm Calm - N/A   Unknown
1:56 AM 51.8 °F - 46.4 °F 82% 30.03 in 10.0 mi Calm Calm - N/A   Unknown
2:16 AM 51.8 °F - 44.6 °F 76% 30.03 in 10.0 mi Calm Calm - N/A   Unknown
2:36 AM 50.0 °F - 42.8 °F 76% 30.03 in 10.0 mi Calm Calm - N/A   Unknown
2:56 AM 48.2 °F - 42.8 °F 82% 30.03 in 10.0 mi East 3.5 mph - N/A   Unknown
3:16 AM 48.2 °F - 42.8 °F 82% 30.03 in 10.0 mi East 6.9 mph - N/A   Unknown
3:36 AM 51.8 °F - 44.6 °F 76% 30.03 in 10.0 mi East 4.6 mph - N/A   Unknown
3:56 AM 48.2 °F - 44.6 °F 87% 30.03 in 10.0 mi East 3.5 mph - N/A   Unknown
4:16 AM 48.2 °F - 42.8 °F 82% 30.03 in 10.0 mi East 3.5 mph - N/A   Unknown
4:36 AM 46.4 °F 45.2 °F 42.8 °F 87% 30.03 in 10.0 mi ENE 3.5 mph - N/A   Unknown
4:56 AM 46.4 °F - 42.8 °F 87% 30.02 in 10.0 mi Calm Calm - N/A   Unknown
5:16 AM 46.4 °F - 41.0 °F 81% 30.03 in 10.0 mi Calm Calm - N/A   Unknown
5:36 AM 46.4 °F 45.2 °F 42.8 °F 87% 30.02 in 10.0 mi East 3.5 mph - N/A   Unknown
5:56 AM 46.4 °F 45.2 °F 41.0 °F 81% 30.02 in 10.0 mi ENE 3.5 mph - N/A   Unknown
6:16 AM 46.4 °F 45.2 °F 42.8 °F 87% 30.02 in 10.0 mi ENE 3.5 mph - N/A   Unknown
6:36 AM 48.2 °F - 42.8 °F 82% 30.02 in 10.0 mi Calm Calm - N/A   Unknown
6:56 AM 48.2 °F - 42.8 °F 82% 30.02 in 10.0 mi Calm Calm - N/A   Unknown
7:16 AM 51.8 °F - 44.6 °F 76% 30.02 in 10.0 mi East 3.5 mph - N/A   Unknown
7:36 AM 51.8 °F - 46.4 °F 82% 30.01 in 10.0 mi ENE 3.5 mph - N/A   Unknown
7:56 AM 53.6 °F - 46.4 °F 77% 30.01 in 10.0 mi Calm Calm - N/A   Unknown
8:16 AM 55.4 °F - 46.4 °F 72% 30.01 in 10.0 mi Calm Calm - N/A   Unknown
8:36 AM 57.2 °F - 48.2 °F 72% 30.01 in 10.0 mi Calm Calm - N/A   Unknown
8:56 AM 60.8 °F - 50.0 °F 68% 30.01 in 10.0 mi Calm Calm - N/A   Unknown
9:16 AM 62.6 °F - 51.8 °F 68% 30.01 in 10.0 mi Calm Calm - N/A   Unknown
9:36 AM 64.4 °F - 50.0 °F 59% 30.00 in 10.0 mi Calm Calm - N/A   Unknown
9:56 AM 66.2 °F - 50.0 °F 56% 30.00 in 10.0 mi Calm Calm - N/A   Unknown
10:16 AM 66.2 °F - 50.0 °F 56% 30.00 in 10.0 mi Calm Calm - N/A   Unknown
10:36 AM 68.0 °F - 50.0 °F 52% 30.00 in 10.0 mi Calm Calm - N/A   Unknown
10:56 AM 69.8 °F - 50.0 °F 49% 30.00 in 10.0 mi Calm Calm - N/A   Unknown
11:16 AM 69.8 °F - 51.8 °F 53% 29.99 in 10.0 mi Calm Calm - N/A   Unknown
11:36 AM 71.6 °F - 50.0 °F 46% 29.99 in 10.0 mi NW 3.5 mph - N/A   Unknown
11:56 AM 73.4 °F - 50.0 °F 44% 29.98 in 10.0 mi WNW 5.8 mph - N/A   Unknown
12:16 PM 73.4 °F - 50.0 °F 44% 29.98 in 10.0 mi West 4.6 mph - N/A   Unknown
12:36 PM 73.4 °F - 51.8 °F 47% 29.98 in 10.0 mi NW 8.1 mph - N/A   Unknown
12:56 PM 73.4 °F - 53.6 °F 50% 29.98 in 10.0 mi West 6.9 mph - N/A   Unknown
1:16 PM 73.4 °F - 53.6 °F 50% 29.98 in 10.0 mi WNW 9.2 mph - N/A   Unknown
1:36 PM 73.4 °F - 53.6 °F 50% 29.98 in 10.0 mi West 8.1 mph - N/A   Unknown
1:56 PM 75.2 °F - 51.8 °F 44% 29.97 in 10.0 mi WNW 8.1 mph - N/A   Unknown
2:16 PM 75.2 °F - 51.8 °F 44% 29.97 in 10.0 mi West 10.4 mph - N/A   Unknown
2:36 PM 75.2 °F - 51.8 °F 44% 29.96 in 10.0 mi West 9.2 mph - N/A   Unknown
2:56 PM 75.2 °F - 53.6 °F 47% 29.96 in 10.0 mi West 8.1 mph - N/A   Unknown
3:16 PM 75.2 °F - 53.6 °F 47% 29.96 in 10.0 mi West 11.5 mph - N/A   Unknown
3:36 PM 75.2 °F - 51.8 °F 44% 29.95 in 10.0 mi West 9.2 mph - N/A   Unknown
3:56 PM 75.2 °F - 51.8 °F 44% 29.95 in 10.0 mi West 12.7 mph - N/A   Unknown
4:16 PM 75.2 °F - 51.8 °F 44% 29.95 in 10.0 mi West 12.7 mph - N/A   Unknown
4:36 PM 75.2 °F - 51.8 °F 44% 29.95 in 10.0 mi West 11.5 mph - N/A   Unknown
4:56 PM 75.2 °F - 51.8 °F 44% 29.95 in 10.0 mi West 11.5 mph - N/A   Unknown
5:16 PM 75.2 °F - 51.8 °F 44% 29.94 in 10.0 mi West 10.4 mph - N/A   Unknown
5:36 PM 75.2 °F - 51.8 °F 44% 29.94 in 10.0 mi West 10.4 mph - N/A   Unknown
5:56 PM 75.2 °F - 51.8 °F 44% 29.94 in 10.0 mi West 10.4 mph - N/A   Unknown
6:16 PM 75.2 °F - 51.8 °F 44% 29.94 in 10.0 mi WNW 10.4 mph - N/A   Unknown
6:36 PM 73.4 °F - 53.6 °F 50% 29.93 in 10.0 mi West 9.2 mph - N/A   Unknown
6:56 PM 73.4 °F - 51.8 °F 47% 29.93 in 10.0 mi West 9.2 mph - N/A   Unknown
7:16 PM 73.4 °F - 51.8 °F 47% 29.93 in 10.0 mi West 9.2 mph - N/A   Unknown
7:36 PM 73.4 °F - 53.6 °F 50% 29.93 in 10.0 mi WNW 10.4 mph - N/A   Unknown
7:56 PM 71.6 °F - 53.6 °F 53% 29.93 in 10.0 mi West 8.1 mph - N/A   Unknown
8:16 PM 71.6 °F - 53.6 °F 53% 29.93 in 10.0 mi West 10.4 mph - N/A   Unknown
8:36 PM 71.6 °F - 53.6 °F 53% 29.93 in 10.0 mi West 8.1 mph - N/A   Unknown
8:56 PM 71.6 °F - 51.8 °F 50% 29.94 in 10.0 mi West 6.9 mph - N/A   Unknown
9:16 PM 69.8 °F - 51.8 °F 53% 29.94 in 10.0 mi West 6.9 mph - N/A   Unknown
9:36 PM 68.0 °F - 51.8 °F 56% 29.94 in 10.0 mi West 6.9 mph - N/A   Unknown
9:56 PM 66.2 °F - 51.8 °F 60% 29.94 in 10.0 mi West 4.6 mph - N/A   Unknown
10:16 PM 66.2 °F - 51.8 °F 60% 29.94 in 9.0 mi NW 3.5 mph - N/A   Unknown
10:36 PM 64.4 °F - 51.8 °F 64% 29.94 in 10.0 mi Calm Calm - N/A   Unknown
10:56 PM 64.4 °F - 51.8 °F 64% 29.94 in 10.0 mi Calm Calm - N/A   Unknown
11:16 PM 62.6 °F - 51.8 °F 68% 29.94 in 10.0 mi Calm Calm - N/A   Unknown
11:36 PM 60.8 °F - 51.8 °F 72% 29.94 in 10.0 mi Calm Calm - N/A   Unknown
11:56 PM 60.8 °F - 51.8 °F 72% 29.94 in 10.0 mi Calm Calm - N/A   Unknown